Flag for Norway Weather past 2 weeks in Longyearbyen, Svalbard, Norway

Now
43 °F

Partly sunny.


Feels Like: 36 °F
Forecast: 38 / 44 °F
Wind: 13 mph from Southeast

Location: Svalbard Lufthavn

Current Time: Sep 2, 2014 at 4:37:02 PM

Latest Report: Sep 2, 2014 at 3:50 PM


Visibility: N/A

Pressure: 29.83 "Hg

Humidity: 61%

Dew point: 30 °F

Location of LongyearbyenLocation

Historic Weather in Longyearbyen — Graph

°F

Longyearbyen temperature yesterday

Maximum temperature yesterday: 39 °F (at 11:50 AM)
Minimum temperature yesterday: 34 °F (at 9:50 PM)
Average temperature yesterday: 37 °F

Past Weeks' High & Low Weather Summary

 TemperatureHumidityPressure
High54 °F (Aug 22, 4:50 PM)93% (Aug 21, 4:50 AM)30.09 "Hg (Aug 21, 4:50 AM)
Low32 °F (Sep 2, 1:50 AM)41% (Aug 22, 4:50 PM)29.71 "Hg (Aug 22, 2:50 PM)
Average41 °F73%29.88 "Hg
* Reported Aug 18 2:50 PM — Sep 2 2:50 PM, Longyearbyen, Weather by CustomWeather, © 2014

Note: Actual official high and low records may vary slightly from our data, if they occured in-between our weather recording intervals... More about our weather records

Advertising

Longyearbyen weather history for previous 24 hours

 ConditionsComfort  
Time TempWeatherWind HumidityBarometerVisibility
2:50 PM
Sep 2
43 °FBroken clouds.14 mph61%29.86 "HgN/A
1:50 PM43 °FBroken clouds.12 mph57%29.86 "HgN/A
12:50 PM41 °FPartly sunny.10 mph61%29.86 "HgN/A
11:50 AM41 °FPartly sunny.10 mph61%29.86 "HgN/A
10:50 AM39 °FPartly sunny.12 mph65%29.86 "HgN/A
9:50 AM39 °FPartly sunny.9 mph65%29.89 "HgN/A
8:50 AM37 °FPartly sunny.6 mph70%29.89 "HgN/A
7:50 AM36 °FPartly sunny.7 mph81%29.89 "HgN/A
6:50 AM34 °FOvercast.2 mph81%29.89 "HgN/A
5:50 AM34 °FSunny.7 mph81%29.89 "Hg10 mi
4:50 AM32 °FSunny.9 mph87%29.89 "Hg10 mi
3:50 AM34 °FClear.9 mph81%29.89 "Hg10 mi
2:50 AM32 °FClear.9 mph87%29.92 "Hg10 mi
1:50 AM32 °FPassing clouds.9 mph87%29.92 "HgN/A
12:50 AM34 °FPassing clouds.6 mph87%29.92 "HgN/A
11:50 PM
Sep 1
34 °FPassing clouds.6 mph81%29.92 "HgN/A
10:50 PM34 °FPassing clouds.5 mph81%29.92 "HgN/A
9:50 PM34 °FPassing clouds.2 mph81%29.92 "HgN/A
8:50 PM36 °FPassing clouds.3 mph75%29.89 "HgN/A
7:50 PM37 °FPassing clouds.6 mph70%29.89 "HgN/A
6:50 PM36 °FPassing clouds.6 mph75%29.89 "HgN/A
5:50 PM37 °FPassing clouds.10 mph75%29.89 "HgN/A
4:50 PM39 °FPassing clouds.10 mph70%29.89 "HgN/A
Weather by CustomWeather, © 2014

See weather overviewHow to use our weather pages